Wind_Speed
7 7 7 8 9 9 9 7 6 5 6 8 8 10 3 2 1 2 4 3 3 3 2 2 2 4 6 6 7 8 8 8 8 3 2 4 7 13 16 19 23 23 23 23 23 22 20 23 27 27 27 28 28 27 27 26 26 26 25 24 24 24 25 24 22 19 18 18 19 20 19 16 16 16 14 13 13 13 13 13 12 12 14 14 14 13 13 13 12 12 11 11 12 12 12 12 13
7 8 8 9 10 9 5 5 7 5 7 8 9 9 3 6 1 5 4 1 2 4 2 4 5 5 6 7 8 8 2 9 10 7 7 9 11 13 18 21 22 24 24 23 23 22 20 22 27 28 28 28 28 28 27 27 27 27 26 25 25 25 25 23 21 19 19 19 20 20 17 15 16 16 15 14 13 13 13 13 12 13 14 14 13 13 13 12 12 11 10 10 11 11 11 11 11
8 8 9 9 9 8 5 5 7 7 7 7 7 3 4 1 1 1 1 3 5 4 3 5 6 5 6 7 5 5 3 9 11 9 8 11 11 13 20 21 22 25 24 23 22 23 22 23 27 27 28 28 28 28 27 28 27 27 26 25 25 24 24 22 20 20 20 20 19 18 17 15 16 16 16 15 14 13 13 14 14 14 15 14 13 13 13 12 11 10 9 9 9 9 9 10 10
7 10 10 8 7 7 6 5 7 8 7 7 4 5 2 2 3 3 2 3 4 4 5 5 4 1 5 4 0 1 4 7 8 7 7 8 10 16 21 22 23 23 23 24 22 22 22 24 27 27 27 28 28 28 28 28 28 27 27 25 24 23 23 21 20 20 20 18 18 18 18 17 17 17 18 16 14 14 15 15 15 14 14 14 13 12 12 11 10 9 8 8 7 7 7 8 8
7 10 11 10 6 3 5 6 6 8 7 7 3 6 2 1 5 2 2 2 4 5 5 6 3 3 1 4 4 1 4 5 6 6 8 9 13 20 21 22 23 22 22 23 23 21 21 25 27 27 27 27 28 28 28 28 28 28 26 25 22 22 21 19 20 20 19 17 18 19 18 18 18 18 18 16 16 17 17 16 15 14 14 13 13 12 11 10 9 8 8 7 7 6 6 6 7
9 9 10 10 6 4 5 6 7 8 9 9 4 5 4 3 4 2 3 4 5 5 5 6 5 4 4 5 6 6 6 2 5 8 9 12 17 22 23 23 22 22 21 21 22 22 22 26 26 27 28 28 28 28 28 29 28 27 26 24 22 21 19 20 21 20 18 18 19 19 17 17 17 17 16 16 17 17 16 15 15 14 13 12 12 12 10 9 8 8 8 7 6 5 5 5 5
10 7 7 8 6 4 7 7 8 8 4 5 6 4 5 4 3 4 4 4 4 5 6 6 6 3 5 6 5 8 6 2 5 9 10 15 20 22 23 23 22 22 21 21 21 22 24 26 26 27 28 28 28 28 28 28 28 27 25 23 21 21 21 22 21 19 19 19 20 18 17 17 16 15 15 16 17 16 16 15 15 14 13 11 12 11 10 9 8 8 7 6 5 4 4 4 5
10 7 4 6 6 5 7 8 8 7 2 1 4 5 4 4 4 6 4 3 3 3 6 5 6 5 5 6 4 6 5 4 7 12 14 18 22 22 22 22 23 22 21 20 20 24 25 26 27 26 27 27 27 26 26 27 27 26 24 23 23 23 23 22 20 20 20 20 20 19 18 17 16 15 15 16 16 17 16 15 14 14 13 11 12 11 10 8 8 8 6 5 5 5 5 5 6
10 7 4 6 7 5 7 8 8 9 3 2 2 3 2 4 4 5 5 5 4 3 7 5 7 7 6 7 6 6 5 6 11 15 17 19 21 21 21 22 24 22 21 21 21 24 24 26 27 25 26 25 25 25 25 27 27 26 25 24 24 24 22 20 19 19 20 20 21 20 19 17 16 15 16 17 16 17 17 14 14 14 12 12 12 11 9 8 7 7 6 5 5 6 7 8 8
8 6 5 5 7 7 7 7 7 6 3 2 2 2 2 3 4 5 6 6 4 5 6 4 8 7 7 9 7 5 5 9 14 16 18 19 21 21 21 23 24 23 22 22 23 24 23 26 27 25 25 25 24 25 27 28 28 26 25 25 24 22 20 18 18 18 20 20 20 21 19 17 16 16 17 16 16 18 17 15 14 13 12 12 11 10 8 7 7 6 6 6 6 8 9 9 9
6 5 5 6 7 7 7 7 7 5 3 2 2 2 3 3 5 5 6 6 5 6 5 5 9 7 7 8 6 6 9 12 16 17 18 19 20 21 22 23 24 24 23 23 23 23 24 25 26 26 25 25 25 26 27 28 27 26 25 25 23 21 20 18 18 19 20 19 20 20 18 17 16 16 17 15 14 16 17 16 14 13 12 12 11 10 8 7 7 6 6 6 6 8 9 10 10
6 6 5 6 7 7 7 7 6 3 5 4 3 3 3 4 4 5 6 6 5 7 7 7 8 8 8 7 6 7 13 14 16 17 18 19 20 21 22 23 23 24 24 24 23 23 24 24 24 25 26 26 26 26 26 27 27 26 25 24 23 21 20 19 19 19 19 18 19 19 17 17 16 16 16 13 12 15 17 17 15 14 12 12 11 9 8 7 7 6 6 6 6 8 9 10 10
7 6 6 7 7 7 7 7 4 1 2 4 5 4 3 3 4 5 6 6 5 7 8 8 6 7 6 7 7 7 12 15 17 17 18 19 20 20 20 22 23 24 24 24 24 24 25 24 23 24 25 26 26 27 28 28 28 26 25 24 21 20 20 19 19 19 18 18 18 18 17 17 15 15 14 12 12 15 17 17 15 14 13 12 11 9 8 7 7 6 6 6 6 7 8 9 9
7 5 6 6 7 8 7 7 5 4 3 5 5 3 3 2 4 6 6 8 7 4 2 4 5 6 8 6 6 6 11 16 17 17 17 18 19 19 19 21 22 23 24 24 25 25 25 24 24 24 24 24 25 27 28 28 27 25 24 23 21 20 20 20 19 19 18 18 17 17 17 16 15 14 13 12 13 15 16 16 14 13 12 11 10 9 9 8 7 6 6 5 6 6 7 8 9
7 5 5 7 7 8 6 8 5 5 3 9 4 2 3 1 1 5 5 7 3 2 4 1 5 4 6 4 4 8 14 18 18 17 17 18 18 18 19 21 21 21 22 23 24 25 24 24 24 25 24 24 24 26 26 27 25 24 23 22 21 21 21 20 19 18 18 17 17 16 16 15 15 13 12 13 14 14 15 16 14 12 11 10 9 9 9 8 7 6 5 5 5 6 6 7 8
6 5 5 6 7 8 6 7 4 4 3 8 4 1 4 0 1 4 3 6 3 1 4 3 1 4 6 5 7 15 19 19 18 18 18 18 18 18 18 20 21 20 20 22 23 24 24 24 25 25 25 25 25 25 25 25 24 24 23 22 21 21 21 19 19 18 17 17 16 16 16 15 14 14 13 13 15 14 14 14 14 12 11 10 10 10 9 8 7 6 5 4 4 4 5 6 7
5 5 6 6 8 8 4 7 3 1 4 7 3 2 4 2 1 2 1 6 5 3 6 3 5 9 5 6 15 22 22 20 18 19 19 18 18 18 18 19 19 19 19 21 22 23 23 24 25 24 26 26 24 25 25 25 24 23 22 21 21 20 20 19 18 17 17 16 16 16 16 15 14 14 14 14 14 15 15 14 13 12 12 11 11 11 9 8 7 6 6 5 4 3 4 4 6
5 6 7 6 7 4 2 1 3 3 3 6 3 2 4 4 2 1 3 9 5 4 6 4 6 9 6 10 20 23 22 21 19 19 19 18 17 17 17 18 19 19 19 20 20 22 23 24 24 24 26 26 25 25 25 25 24 22 21 21 20 19 19 19 18 17 17 16 17 17 15 16 15 14 14 14 14 15 15 14 13 12 12 11 11 10 10 10 8 7 7 6 5 4 3 3 4
7 6 6 8 6 2 5 5 6 4 4 4 3 2 4 4 3 2 5 7 7 7 7 7 7 11 9 13 19 21 22 21 20 19 17 17 16 16 16 17 18 18 19 19 20 21 23 23 23 23 24 24 25 25 25 25 24 23 22 21 20 19 20 19 18 17 17 17 17 17 15 16 17 15 14 14 14 15 15 14 13 12 11 11 10 10 10 10 9 8 7 7 7 6 5 3 4
8 7 7 7 3 4 3 3 4 4 6 5 4 4 5 4 2 4 6 5 7 9 8 9 10 12 11 12 16 19 21 21 19 18 17 17 17 17 16 16 17 17 19 18 18 19 20 22 21 20 24 25 24 25 25 24 23 23 22 21 20 21 21 19 18 16 16 18 18 18 16 16 16 14 13 14 14 14 14 13 11 10 9 8 8 8 8 8 8 8 8 7 8 7 6 5 5
7 7 10 5 5 4 1 2 3 4 6 7 6 5 7 5 4 6 6 7 8 9 7 9 12 13 13 13 14 17 17 18 19 19 18 17 17 17 16 16 16 17 17 15 16 16 16 20 19 17 22 21 20 23 23 23 22 22 21 20 21 21 20 20 17 15 16 18 18 17 17 15 15 14 14 15 13 12 13 12 10 9 8 8 8 8 8 8 8 8 9 8 9 8 7 6 5
7 8 12 8 5 5 1 1 2 3 6 7 7 7 6 6 6 8 7 8 5 5 6 6 12 13 14 15 13 15 15 17 19 19 19 18 17 16 15 16 15 15 15 13 14 12 11 14 15 16 17 14 15 17 17 20 21 20 21 20 20 19 19 19 16 15 17 18 17 17 17 16 16 16 15 14 13 13 13 12 10 10 9 9 9 9 8 8 8 8 9 9 9 8 7 7 7
8 7 11 9 7 7 2 2 4 4 7 8 7 7 6 8 8 7 6 7 6 3 5 3 14 13 13 16 14 16 18 18 18 18 18 18 17 16 16 16 15 14 13 11 11 10 12 11 10 15 16 15 18 15 13 17 17 17 20 20 19 17 17 16 15 17 18 18 17 16 15 14 16 17 15 13 13 13 12 12 11 10 9 9 9 8 8 8 8 7 7 7 7 8 8 8 8
10 9 8 7 7 9 8 6 6 7 8 8 8 8 7 10 8 5 5 8 4 3 4 3 17 17 14 15 15 17 18 17 17 18 18 17 17 17 15 15 15 14 13 11 10 11 15 14 12 15 15 16 19 16 15 15 14 16 18 18 17 17 17 15 16 18 17 17 17 16 14 16 17 18 17 15 12 11 11 11 11 10 9 9 8 7 7 7 7 7 7 7 7 8 8 8 8
12 11 8 5 6 8 8 7 8 8 8 8 9 10 9 10 9 7 9 8 2 3 5 6 15 16 13 14 15 16 16 16 16 16 17 15 16 16 15 14 14 13 14 14 12 13 17 19 18 18 16 16 16 14 15 12 11 13 16 17 17 17 17 16 17 17 16 16 16 15 14 17 18 18 18 15 12 11 10 10 10 9 9 8 7 7 7 7 6 6 6 6 7 7 6 6 7
9 12 10 8 9 8 8 9 10 8 7 7 9 11 9 9 9 8 13 6 4 4 4 5 11 14 11 12 14 14 14 15 14 14 15 15 15 17 15 14 13 13 14 16 16 15 19 21 20 18 18 19 16 13 14 13 10 10 14 16 16 16 15 16 18 18 18 16 15 14 13 16 17 17 17 14 12 11 10 9 9 8 8 8 7 7 6 6 6 6 6 6 6 6 5 6 7
2 8 10 11 11 8 9 9 9 9 8 8 10 11 10 9 9 8 9 4 3 6 9 4 7 12 12 12 12 12 12 13 14 14 14 15 16 16 16 14 14 15 15 17 18 16 18 21 21 18 19 19 16 13 12 13 10 10 13 14 14 15 14 17 17 17 19 16 15 14 13 14 15 16 15 12 12 11 10 9 8 8 8 7 7 6 6 6 5 5 5 5 5 5 5 6 6
3 6 8 10 13 10 11 10 9 9 8 9 10 11 10 10 10 10 6 7 4 7 13 12 11 11 12 11 11 10 10 12 14 14 14 15 15 16 17 15 15 16 17 18 18 18 18 20 20 17 17 17 16 13 9 10 10 10 10 11 14 14 13 17 17 16 18 16 14 15 14 13 12 13 11 10 12 11 10 9 8 7 7 7 6 6 6 6 5 5 5 4 4 4 4 5 5
6 7 9 11 13 12 13 12 10 9 7 6 7 9 11 11 13 14 6 7 6 7 10 13 11 11 11 10 10 9 10 13 13 13 15 16 15 17 17 16 16 16 17 17 17 20 20 20 20 17 16 17 18 16 12 10 9 9 9 10 15 14 12 13 13 15 15 14 15 15 15 12 9 9 9 9 11 10 9 8 8 7 6 6 6 5 6 6 5 5 6 5 6 5 5 5 5
8 9 9 9 10 12 14 12 9 10 7 4 4 7 10 12 17 17 9 8 8 8 9 10 10 9 9 9 9 9 10 12 13 14 17 18 16 17 18 17 18 16 16 17 17 20 20 20 21 18 18 20 20 18 16 14 11 9 9 11 13 12 11 11 12 14 14 14 15 14 13 11 8 9 9 9 9 9 9 8 8 7 7 6 6 6 6 6 6 5 6 6 7 6 6 6 6
8 9 8 7 8 6 11 10 7 9 6 7 8 7 8 13 19 16 9 9 10 9 10 10 11 9 9 9 9 10 11 11 14 16 17 18 16 16 17 18 18 16 16 16 15 18 19 19 20 19 21 23 22 21 19 16 11 9 9 11 11 10 12 13 13 14 14 14 14 13 12 11 9 9 9 9 8 8 9 8 8 7 7 7 6 6 6 5 5 5 6 6 6 7 6 6 6
8 8 7 8 8 4 11 9 8 7 4 9 11 7 9 12 14 14 8 10 11 9 8 8 9 10 10 10 10 11 11 12 16 16 16 16 15 15 17 18 18 17 17 17 16 18 18 18 19 20 22 24 22 20 19 17 11 9 9 10 11 11 12 13 14 13 12 12 13 13 13 11 9 8 9 8 7 8 8 8 8 7 7 7 6 6 6 5 5 5 5 5 5 6 6 6 5
7 8 7 7 8 6 8 9 9 6 2 8 11 8 9 11 9 14 10 11 11 10 10 9 8 9 9 10 11 11 11 12 13 14 15 16 16 16 17 18 18 16 16 16 17 18 18 18 19 19 21 23 21 18 19 18 13 10 7 8 11 13 14 13 13 12 10 11 12 13 13 10 9 9 8 8 7 8 8 8 8 8 7 7 6 6 6 5 5 5 5 5 5 6 6 6 5
7 7 7 6 7 6 4 8 9 7 5 8 10 9 11 12 4 10 9 11 12 12 12 12 10 10 11 10 10 10 10 10 10 12 14 15 17 16 17 19 18 15 14 15 16 17 17 18 19 18 19 20 18 18 19 19 15 11 8 8 11 13 15 13 11 10 10 12 11 11 12 10 9 9 8 8 7 7 8 8 9 8 8 7 7 7 6 6 5 5 5 5 5 5 4 4 4
8 9 7 7 7 7 6 4 7 8 7 8 8 9 12 15 5 5 8 11 13 14 11 12 12 12 12 10 10 10 9 9 9 11 13 15 15 15 17 18 17 15 14 14 16 17 18 18 19 18 17 17 17 17 19 19 18 13 9 9 11 13 14 11 10 10 12 14 12 11 12 10 9 9 9 8 7 7 7 7 8 8 8 7 7 7 7 6 5 5 5 5 5 4 3 4 4
7 7 8 9 7 8 7 2 5 4 6 8 9 9 11 14 12 8 9 11 12 13 11 9 10 11 12 11 10 9 9 8 9 11 13 14 14 14 16 16 16 15 14 15 18 20 19 18 19 18 17 17 16 17 18 19 17 13 10 9 9 11 11 9 10 11 12 14 13 12 11 9 9 9 9 9 8 7 6 7 8 9 8 7 8 7 7 7 6 6 6 5 6 4 4 4 4
7 7 5 8 8 6 6 4 4 2 5 8 9 11 12 12 15 12 9 10 12 13 12 9 9 12 14 13 10 8 7 7 9 11 12 14 15 15 15 15 16 15 15 17 19 20 18 18 20 18 17 17 16 16 16 18 16 12 11 10 10 11 10 9 10 11 12 14 14 11 10 9 9 9 9 9 8 7 6 7 8 8 8 7 7 7 6 6 6 6 6 5 6 6 5 5 5
7 9 7 8 8 8 7 5 4 4 5 7 9 11 13 13 13 12 10 11 12 14 14 11 13 14 11 9 11 11 8 7 9 10 11 15 16 16 15 15 16 16 16 18 20 20 18 19 20 19 19 18 18 16 15 18 17 13 13 12 10 10 9 8 9 9 9 12 12 10 9 9 9 9 9 9 9 9 9 9 9 9 8 7 7 7 6 6 7 6 6 6 6 6 5 5 6
8 8 9 8 7 10 7 6 5 6 4 6 10 10 11 13 12 13 14 11 10 15 16 13 15 15 11 12 11 12 9 9 9 8 11 16 17 17 16 15 16 17 17 18 20 20 20 20 19 20 20 18 19 18 17 19 16 13 13 13 11 9 8 8 8 9 8 10 9 9 8 9 9 9 9 9 10 10 10 11 10 9 9 8 8 8 7 7 7 6 6 6 6 6 5 6 5
8 8 9 8 9 12 7 4 6 6 5 8 10 8 9 10 11 13 15 13 11 14 17 16 16 14 15 17 11 13 10 11 10 10 12 16 18 18 17 16 17 17 18 20 21 21 21 21 20 20 20 20 20 19 18 16 13 13 12 12 12 9 9 9 8 9 8 9 10 9 8 8 8 8 8 9 9 9 9 9 9 9 9 9 8 8 9 8 8 7 6 6 6 6 6 6 5
10 11 10 9 11 13 6 4 5 5 8 9 9 8 7 10 12 13 13 14 13 13 16 17 17 15 15 17 13 17 15 13 12 12 13 15 17 19 18 18 18 19 20 21 22 22 22 22 22 19 19 21 20 17 19 17 13 14 13 11 11 9 9 9 8 9 9 11 12 9 8 8 8 7 7 8 8 8 9 8 8 9 9 9 8 8 9 9 8 8 7 7 6 5 5 5 6
9 11 13 13 12 12 7 7 8 6 9 10 11 9 7 10 15 15 13 14 15 14 15 17 18 17 15 16 13 16 16 15 14 13 13 15 17 19 20 20 20 21 23 22 21 21 21 21 20 16 16 19 16 14 19 17 13 14 13 12 11 8 8 8 9 12 11 12 12 9 7 7 8 7 7 7 6 7 8 8 9 9 9 9 8 8 8 9 9 8 8 7 6 4 4 5 6
8 9 12 13 11 11 10 12 10 7 8 6 9 9 7 9 12 13 13 14 16 15 15 17 16 16 16 15 14 13 15 13 11 11 13 15 16 18 20 22 23 23 22 21 19 19 19 16 13 14 15 16 15 17 17 14 12 11 11 11 10 9 9 7 8 10 10 12 10 9 7 7 7 6 6 6 6 7 7 8 8 8 8 8 8 8 9 9 8 8 7 6 5 5 4 3 4
9 6 6 9 10 11 12 12 10 8 9 4 7 9 9 8 8 7 9 13 15 14 14 17 16 15 16 15 16 14 15 15 10 10 13 15 16 18 20 22 24 22 19 17 16 14 15 16 13 15 17 14 13 16 15 13 12 10 10 11 10 10 8 7 8 9 10 11 8 9 8 7 7 6 6 6 6 7 7 7 7 7 7 7 8 8 8 9 8 8 7 5 4 4 4 3 4
10 4 2 6 9 11 11 11 9 9 10 7 8 10 8 8 8 7 9 12 12 12 14 16 16 17 17 16 18 15 13 16 14 13 13 15 18 20 20 20 18 15 12 13 12 9 12 17 18 15 13 12 12 14 16 16 13 10 12 11 10 9 8 9 10 8 10 10 8 8 7 7 7 6 6 6 6 6 6 6 6 6 6 6 7 7 7 8 8 9 8 6 5 4 4 3 4
9 3 4 8 9 10 10 9 9 9 10 10 10 10 8 8 8 8 10 12 11 11 11 7 7 9 11 11 14 16 14 15 14 13 12 14 17 20 18 12 4 11 15 14 13 10 11 15 18 14 13 14 14 16 19 21 18 14 15 15 12 12 11 11 11 8 11 10 8 8 7 7 7 6 6 6 6 6 5 5 5 6 6 5 6 6 7 7 7 9 8 6 6 5 4 3 3
6 2 6 10 9 9 9 7 8 8 9 11 13 15 11 8 8 5 3 3 5 5 2 4 7 5 6 7 9 15 12 11 12 13 11 9 11 12 7 9 17 25 26 19 16 18 13 14 18 17 18 19 17 18 21 23 22 19 19 18 14 13 12 12 12 10 12 10 9 9 8 8 7 7 7 6 6 6 5 5 4 4 5 4 5 5 7 7 7 8 8 7 7 6 5 4 4
7 5 7 9 7 8 7 7 7 7 8 10 14 17 13 9 7 2 3 4 3 3 3 5 9 9 8 8 10 13 5 9 9 10 9 6 7 5 12 19 17 17 20 20 21 24 21 20 23 20 19 20 18 17 21 24 23 20 20 18 15 14 13 14 12 12 12 11 11 10 10 9 9 8 8 7 7 6 5 5 4 4 4 3 4 4 6 6 6 7 8 9 8 7 6 6 5
9 8 8 8 7 7 7 7 7 7 9 9 10 11 10 8 5 1 4 5 7 6 5 6 9 10 11 10 12 13 5 9 8 7 9 8 7 9 15 19 17 16 18 21 24 27 26 25 26 21 17 18 18 17 19 23 23 21 21 20 18 17 15 14 13 14 13 12 11 11 10 10 10 9 9 8 8 7 6 5 5 4 3 3 4 3 4 5 6 7 7 8 9 8 7 6 6
10 9 8 8 7 6 7 7 7 7 9 9 6 4 6 7 1 7 8 7 6 5 6 5 5 7 11 11 10 11 5 7 7 7 9 8 8 12 15 16 17 16 17 21 27 29 28 29 29 23 19 18 19 20 19 19 21 22 22 22 21 20 18 16 15 15 13 12 11 11 10 10 10 10 9 9 9 8 7 6 5 4 4 4 4 4 4 4 5 5 5 6 7 7 7 6 6
11 10 9 9 7 6 6 6 6 7 7 7 7 5 7 6 1 8 8 6 3 3 5 3 2 4 6 7 8 8 4 4 6 6 8 8 9 14 16 14 14 17 19 22 24 23 25 29 29 25 22 20 20 21 20 19 20 21 23 24 24 23 21 17 15 15 14 12 12 11 10 10 9 10 10 10 10 9 8 7 6 5 4 4 4 4 4 4 4 5 5 6 7 7 7 7 6
9 9 10 9 7 7 5 5 5 4 5 5 6 6 4 2 3 5 5 5 6 5 5 5 2 1 2 3 6 7 5 4 4 5 7 8 10 15 17 13 11 15 20 21 20 20 21 22 22 22 22 21 20 20 21 22 20 20 24 27 26 24 21 16 14 14 14 11 12 11 10 10 9 10 11 10 10 10 8 8 6 5 5 4 5 5 5 4 4 5 5 6 6 6 7 7 7
5 8 10 9 8 8 7 6 5 4 6 6 6 6 3 5 3 3 5 6 7 6 5 6 4 2 2 1 2 4 5 6 6 6 6 8 10 13 16 15 13 16 18 18 19 19 18 16 16 20 21 21 21 20 21 23 22 21 26 29 27 25 22 16 14 15 14 12 12 11 10 10 10 10 11 11 11 10 9 8 7 6 5 5 5 5 5 5 5 5 5 5 5 6 6 6 6
5 6 7 8 9 8 5 6 6 6 8 7 8 10 5 4 3 0 4 5 7 6 6 6 6 5 5 5 4 3 3 3 4 6 6 7 7 9 12 13 14 17 19 19 19 17 16 15 16 19 22 22 23 23 23 24 23 24 28 30 28 27 24 20 16 15 14 13 13 12 11 10 10 10 10 11 11 10 10 8 7 6 6 6 6 5 5 6 6 5 6 6 6 6 5 5 5
11 6 5 5 7 6 6 6 6 7 8 6 9 10 4 1 2 2 1 3 6 6 5 5 6 8 7 5 5 3 3 3 3 5 6 5 5 6 9 11 13 16 18 18 19 18 16 16 16 19 22 22 23 25 27 27 25 25 29 30 29 29 27 22 18 15 14 14 13 12 12 11 11 10 10 11 11 11 10 9 7 7 7 7 6 6 6 6 7 7 6 6 6 6 5 5 5
13 10 7 6 6 5 5 5 5 7 7 6 9 8 1 4 3 4 2 4 5 4 4 5 6 9 10 6 3 2 4 4 4 5 5 4 5 8 9 9 10 12 14 15 17 18 18 17 18 19 20 20 22 25 28 29 27 25 26 27 27 28 27 22 18 16 15 14 13 13 12 12 11 10 11 11 11 11 10 9 8 7 7 8 8 8 7 7 8 7 6 6 6 6 6 5 5
11 9 8 8 6 5 5 4 4 7 6 5 7 5 3 3 3 3 4 3 4 4 3 5 8 11 12 11 9 8 8 8 8 7 5 4 5 8 9 6 4 4 5 9 12 16 18 17 18 19 19 21 22 25 27 28 27 25 25 25 24 25 26 22 18 17 16 15 14 13 13 12 11 10 11 11 11 11 11 10 9 8 8 9 9 9 9 8 8 8 7 6 6 6 6 6 6
10 9 10 10 8 6 7 6 6 6 6 6 5 1 4 3 3 3 3 3 5 6 5 6 10 12 12 12 12 11 10 10 10 9 8 8 7 7 6 4 4 1 4 5 8 12 15 17 17 17 19 21 23 24 26 26 25 24 24 24 22 22 24 22 19 17 17 15 15 14 13 12 11 11 11 11 11 11 11 10 9 8 8 9 10 10 10 9 9 8 8 7 6 6 6 7 7
Wind_Direction
198 211 224 231 241 247 229 223 242 209 232 255 249 257 233 126 14 274 211 185 234 151 90 320 288 288 265 291 302 311 347 0 4 5 104 101 116 117 124 129 135 136 136 137 136 140 141 149 155 157 161 162 162 161 160 161 161 160 159 156 153 150 148 151 152 151 148 147 144 146 147 143 144 142 136 134 133 133 135 135 132 128 128 129 127 127 126 124 121 118 112 105 97 89 80 77 77
210 221 228 234 235 242 233 206 251 233 218 249 243 243 117 100 204 238 207 149 15 67 32 290 281 277 271 292 290 278 15 54 48 69 90 120 122 120 132 130 138 138 137 141 137 139 141 149 153 156 159 159 161 160 161 161 160 160 158 155 153 151 150 152 153 152 148 145 143 146 145 142 144 142 138 139 143 144 141 134 130 132 134 134 131 131 130 128 124 120 115 109 101 90 82 78 75
227 223 211 219 227 236 249 216 244 254 232 252 245 180 97 170 213 160 93 14 3 9 292 276 269 261 240 232 244 256 98 70 68 86 110 135 132 137 140 131 139 139 138 142 139 139 142 150 152 155 157 158 159 160 161 160 160 159 157 156 154 153 153 152 152 149 145 141 142 145 144 144 145 144 143 146 153 148 137 131 133 136 136 136 134 134 133 133 130 119 110 108 103 94 86 80 77
229 225 216 219 218 219 239 229 236 259 252 260 261 90 77 258 78 69 17 339 321 285 267 271 253 225 254 242 323 290 79 72 70 91 133 139 136 143 142 133 136 138 141 144 141 138 144 152 151 153 156 157 158 159 159 158 158 157 156 155 154 155 152 150 149 147 144 142 144 144 143 145 146 147 150 153 157 144 136 139 140 139 138 138 137 139 138 134 127 117 109 105 102 95 89 85 82
230 225 229 240 234 232 240 237 237 253 254 266 295 83 85 42 70 30 305 287 255 246 247 260 235 130 227 14 16 324 77 94 82 89 128 125 133 140 140 136 133 137 144 146 143 139 146 153 151 154 155 157 158 157 157 157 157 156 156 154 154 154 152 150 148 148 146 146 147 144 142 146 147 150 154 156 154 143 140 143 141 141 142 144 145 144 136 127 121 118 112 105 100 95 94 95 92
228 217 222 242 261 295 259 241 235 241 249 264 293 81 82 37 28 330 277 252 240 250 240 246 248 167 140 67 46 32 42 101 96 98 124 128 136 138 137 136 134 138 141 143 144 142 148 154 154 155 156 157 157 156 157 157 157 156 156 154 154 153 153 150 148 148 146 148 147 145 145 148 148 148 150 147 146 141 141 142 142 146 148 148 148 140 128 124 122 119 113 107 106 108 110 110 107
224 210 202 228 248 259 246 245 243 244 231 254 284 24 45 20 350 294 280 254 213 217 218 234 252 197 129 120 90 56 48 51 98 118 134 137 139 138 136 138 137 139 141 139 141 145 153 156 155 155 156 157 157 158 158 158 158 156 156 155 154 153 151 149 149 150 150 152 149 148 148 148 147 145 146 144 143 143 144 147 148 152 151 147 141 132 129 131 127 126 123 115 109 104 108 107 108
234 231 208 226 231 211 236 248 248 254 131 120 299 10 9 331 314 279 285 263 231 200 205 218 231 220 152 147 99 71 83 76 100 123 136 141 141 140 139 140 139 138 141 139 139 147 156 157 154 155 154 155 157 157 156 158 159 157 156 154 152 150 148 149 153 155 155 155 152 150 149 149 148 147 151 151 149 148 148 152 154 153 150 149 141 137 139 137 137 140 131 112 104 100 105 105 104
230 233 225 232 242 219 234 247 242 248 225 113 46 52 324 300 306 280 272 246 254 248 223 210 212 214 151 128 87 87 99 93 114 128 141 144 141 141 141 141 140 139 139 139 141 146 154 156 154 153 152 153 154 154 155 158 158 156 154 151 149 148 149 151 157 160 159 158 155 152 150 149 148 151 157 156 153 150 152 154 151 149 152 157 149 145 145 138 144 143 126 109 110 111 107 105 104
217 223 239 237 249 241 234 241 237 239 226 88 74 43 329 303 295 273 269 255 245 238 227 215 211 202 131 118 100 103 110 118 130 137 145 144 141 143 142 141 141 141 138 138 142 145 154 158 156 154 153 153 152 154 156 157 156 154 152 151 151 150 152 153 156 159 157 159 157 153 152 149 149 155 158 155 153 154 159 156 150 151 156 157 150 147 145 142 149 138 118 103 112 118 109 105 101
218 211 245 249 243 245 240 236 227 203 131 130 147 49 338 298 288 273 267 264 245 232 212 214 212 184 133 122 104 110 123 134 140 142 146 145 143 142 141 140 142 143 140 140 144 146 152 158 158 157 156 155 155 157 157 157 156 155 155 154 155 154 154 153 152 153 153 154 152 152 153 151 151 153 152 149 151 160 166 161 156 160 159 155 150 147 149 150 149 132 108 91 105 123 113 103 98
234 206 222 245 241 242 246 250 237 167 128 184 158 72 317 283 295 287 271 262 234 229 207 207 207 175 159 126 104 128 137 144 142 144 148 145 143 144 143 144 148 147 144 144 145 147 150 154 158 159 159 159 160 159 158 158 156 157 157 157 158 156 155 154 152 150 150 150 150 152 153 151 150 149 149 147 152 163 169 167 162 161 160 157 154 150 152 154 148 126 104 87 96 124 118 105 99
242 232 226 239 253 256 257 264 255 221 198 183 115 65 302 292 318 304 282 264 224 229 208 193 201 158 132 105 115 144 146 146 144 150 152 146 145 146 147 149 150 148 146 146 146 149 151 153 156 159 162 162 160 158 157 156 155 156 158 159 159 157 156 154 153 151 149 149 149 150 151 150 149 150 153 152 156 163 170 170 162 159 160 158 157 154 151 154 154 129 109 95 92 117 125 112 102
238 254 257 251 257 262 265 263 245 248 239 130 95 21 295 318 333 312 287 253 210 227 231 158 193 135 107 112 135 154 153 148 149 156 154 149 148 147 151 151 148 146 148 150 150 152 154 155 156 158 160 158 157 156 157 155 155 157 159 160 157 156 156 154 154 152 150 148 148 150 151 150 151 155 155 152 157 165 172 174 165 159 161 160 158 157 156 158 156 136 122 114 101 111 129 125 110
245 265 265 261 259 255 244 247 258 257 191 110 94 330 290 334 327 302 302 270 213 44 350 130 217 172 143 174 169 164 156 151 154 159 152 149 148 147 149 148 146 148 153 156 155 155 157 157 156 157 157 156 156 155 156 157 157 159 160 159 156 155 155 156 156 154 154 153 154 154 154 153 154 157 157 153 157 163 169 174 172 165 166 167 165 165 167 165 154 140 131 123 113 111 127 137 126
251 273 255 251 253 251 221 219 249 259 144 100 84 29 278 309 95 300 338 283 279 133 255 199 177 95 136 192 171 159 154 152 157 158 152 147 146 145 147 148 148 152 160 162 161 161 160 159 158 157 158 158 156 155 156 158 160 160 160 159 155 156 158 158 158 158 158 158 160 160 158 156 157 160 159 157 157 158 161 169 173 172 172 171 171 174 174 164 149 140 136 127 122 115 117 139 145
234 257 248 241 242 246 208 189 204 251 104 92 63 44 284 318 66 311 106 247 259 201 216 180 96 88 116 167 150 150 149 151 157 158 154 150 148 149 153 153 154 159 166 168 167 166 164 163 161 160 161 160 157 157 157 159 161 160 158 157 156 158 160 160 160 160 159 161 163 161 160 158 161 164 162 162 160 159 162 164 169 172 173 175 176 177 175 164 154 148 145 139 129 123 111 126 150
223 232 237 238 233 250 304 148 57 348 70 67 20 22 301 317 0 349 201 218 216 208 200 158 115 101 102 130 137 145 147 151 161 162 157 155 155 157 160 160 163 167 169 171 170 167 167 167 165 164 163 161 160 158 159 160 160 159 158 157 158 159 160 160 159 156 155 159 159 157 159 158 161 167 166 165 163 161 163 163 163 168 171 178 182 178 173 167 166 161 154 152 146 146 128 115 145
225 232 232 239 236 24 5 5 27 342 359 17 305 342 310 305 350 326 269 223 192 206 192 171 148 120 114 125 135 145 150 158 164 164 161 160 162 163 165 165 170 171 171 173 170 170 171 169 168 167 163 160 161 159 159 160 159 159 159 158 158 160 160 159 156 155 155 156 158 157 158 160 161 168 168 164 164 163 161 161 160 164 170 178 181 175 172 172 173 170 168 165 157 161 162 162 169
225 240 234 240 291 19 22 357 357 335 340 313 295 335 288 281 322 282 289 279 221 210 188 184 167 133 129 137 143 149 155 163 164 165 166 167 167 167 169 170 174 173 173 172 168 173 173 170 171 169 164 163 162 160 159 159 160 159 159 159 160 161 160 160 156 154 158 159 162 161 160 163 163 167 168 164 164 160 158 161 164 167 171 174 171 166 168 174 175 176 178 171 171 184 191 191 183
221 231 241 260 359 324 198 32 335 332 317 299 304 294 272 296 307 270 275 270 233 200 198 199 165 144 144 149 152 153 160 165 167 171 172 174 172 171 174 175 178 174 171 168 170 176 169 169 175 168 164 166 162 161 160 159 160 159 160 160 160 161 162 164 157 153 165 166 165 166 163 160 161 165 166 164 159 156 156 159 165 166 166 160 151 157 167 170 173 180 183 183 192 205 207 201 194
237 232 252 280 328 284 147 70 303 320 294 285 280 271 296 314 276 269 270 269 266 163 206 209 146 147 150 151 158 155 167 174 173 177 175 178 176 175 180 179 180 173 166 167 172 170 155 165 175 165 162 169 165 163 164 160 160 160 162 161 159 162 163 165 160 160 172 170 167 168 162 156 161 165 163 162 159 158 158 159 161 159 160 158 153 162 168 168 174 182 187 196 205 212 209 205 206
245 237 246 262 268 269 299 284 276 294 279 275 277 285 309 288 264 269 264 270 309 97 221 212 121 140 151 148 164 164 174 180 177 180 176 179 179 178 181 179 181 171 158 162 161 147 147 158 167 165 168 170 164 168 171 165 165 163 163 160 158 162 161 164 167 169 172 170 169 164 162 167 168 169 165 162 163 162 160 158 158 155 156 159 164 169 166 168 178 184 191 198 206 213 209 206 208
240 250 245 244 248 263 279 281 276 273 272 277 282 285 279 267 266 280 264 252 276 97 215 186 115 137 157 154 172 171 175 180 178 183 179 182 182 179 181 178 179 167 154 160 151 140 153 162 166 171 175 169 165 170 172 177 180 167 161 159 161 167 161 160 168 171 171 173 170 160 170 179 169 169 166 159 163 164 160 156 153 153 152 154 159 159 160 167 173 179 186 188 198 210 207 206 209
230 248 256 251 246 254 264 266 263 262 268 271 265 266 262 260 270 284 266 245 206 121 196 169 125 141 162 164 175 172 175 179 179 183 183 187 183 178 181 178 174 157 152 163 155 146 155 165 174 175 172 167 168 168 168 195 206 170 159 160 168 174 163 160 170 174 176 178 170 163 178 177 166 168 164 158 164 161 155 153 149 149 147 148 150 150 158 165 166 175 179 182 192 201 200 206 215
221 238 249 250 249 247 252 253 256 258 257 261 259 258 253 253 265 261 247 229 119 172 150 123 142 147 164 175 174 172 175 177 178 181 183 185 182 182 180 174 172 157 156 165 160 158 161 164 169 174 172 168 170 172 175 201 215 182 166 165 173 174 167 169 175 177 179 181 171 165 178 173 167 169 165 165 163 155 154 152 147 146 144 147 151 156 161 164 170 175 182 191 191 194 193 203 215
225 243 253 255 259 256 253 254 255 261 257 253 255 255 251 248 251 238 221 151 144 189 119 124 191 150 164 181 168 169 172 176 179 179 183 184 182 185 178 170 173 167 165 165 159 159 162 162 163 171 172 167 172 179 184 191 195 194 174 164 172 171 171 174 178 180 178 182 178 169 175 177 177 173 169 165 155 152 154 150 147 147 147 151 157 164 168 172 180 180 191 196 188 195 192 204 214
279 259 264 255 258 255 246 247 246 251 250 242 248 255 252 242 242 240 193 128 214 205 141 176 200 153 166 174 161 170 172 179 184 180 188 188 184 186 179 170 173 173 170 167 161 157 157 159 158 164 169 167 169 171 188 192 190 202 176 155 166 171 176 176 178 181 178 184 181 175 177 182 185 173 162 153 151 154 151 149 150 148 149 156 162 169 173 178 184 183 188 188 183 195 194 208 221
258 252 262 252 245 243 234 230 232 236 237 230 248 257 243 228 232 236 192 145 213 210 166 178 177 159 165 164 166 180 178 179 183 185 193 192 189 188 181 175 177 176 170 168 166 161 160 158 152 156 167 167 163 166 186 198 199 209 191 171 170 169 173 172 178 183 184 190 182 179 177 176 180 164 152 150 153 153 149 151 152 151 154 156 165 173 179 186 190 188 187 191 188 193 198 206 214
247 238 252 255 243 237 221 213 218 233 234 208 239 254 233 213 220 226 183 163 209 202 181 174 166 161 159 168 178 182 180 179 184 194 200 197 193 188 181 180 181 174 167 170 168 161 161 160 154 158 170 165 161 169 180 190 206 214 198 186 173 164 164 168 183 189 191 190 178 177 176 174 175 162 158 156 153 153 152 156 156 159 160 158 169 175 185 195 196 198 195 198 194 196 199 201 215
241 233 227 242 253 224 181 182 202 220 197 180 226 252 241 217 207 206 176 179 212 205 189 177 170 166 165 177 185 182 182 187 196 202 205 200 194 188 182 182 180 170 164 169 169 161 159 161 160 164 175 173 168 171 176 182 203 216 193 180 170 164 171 178 189 190 192 187 173 174 176 176 177 166 164 158 154 157 155 161 163 164 164 164 176 178 190 199 194 199 203 200 193 202 200 198 217
227 234 219 220 240 184 143 163 204 220 169 178 218 241 253 241 192 168 170 197 211 203 188 183 177 171 173 181 190 190 183 193 204 206 205 199 193 188 186 185 180 172 165 165 167 166 162 164 166 167 175 181 174 170 175 176 185 213 199 173 166 169 179 187 188 186 193 190 174 176 178 177 179 171 167 162 156 161 164 169 168 167 167 170 179 181 189 197 191 193 203 201 194 206 203 196 203
209 227 238 212 215 206 151 166 196 222 219 187 214 237 253 254 174 150 178 205 215 206 178 176 181 179 188 192 193 192 184 193 205 206 201 196 195 194 194 192 185 176 167 164 166 168 168 170 171 169 172 179 175 168 175 176 175 196 199 174 174 181 186 189 188 192 201 196 182 180 181 178 179 173 168 165 164 174 177 174 168 168 172 175 178 183 192 195 189 189 197 200 203 213 204 192 184
201 211 247 231 218 241 168 154 171 193 229 210 216 235 252 260 175 138 188 207 217 221 186 167 175 192 202 203 196 191 186 188 200 206 198 196 201 200 199 198 191 179 171 169 168 169 174 175 174 174 172 173 173 171 176 180 178 181 190 190 187 187 190 188 190 202 201 193 189 185 181 177 176 172 171 172 178 191 185 169 164 168 174 175 176 184 191 190 185 186 192 193 202 217 207 189 180
218 202 228 234 216 247 248 157 145 177 220 229 227 228 243 260 258 133 197 208 214 229 210 174 175 195 204 206 199 190 186 184 195 201 192 194 201 197 197 199 192 179 174 175 173 176 181 179 176 176 174 171 173 175 176 181 182 178 180 192 192 189 191 189 190 203 198 192 200 196 179 176 177 173 177 176 185 204 187 163 162 171 177 174 175 184 185 184 183 181 186 189 192 204 200 177 166
268 226 222 238 224 228 237 157 126 173 230 234 237 241 240 248 251 223 200 203 210 228 232 193 180 197 206 206 193 183 187 185 195 196 184 188 190 186 189 192 189 179 174 176 180 186 184 177 177 177 175 173 175 175 174 181 184 179 178 186 191 192 196 197 198 201 192 191 205 202 180 180 182 175 182 181 186 205 186 163 169 177 178 174 177 184 183 178 177 178 183 189 185 189 188 167 152
298 277 240 247 252 237 224 190 169 198 250 247 241 250 251 247 252 243 206 201 210 221 228 208 202 216 213 199 174 172 187 186 201 196 185 190 185 181 182 180 182 180 179 182 188 193 185 178 181 179 174 174 180 178 174 181 183 179 183 186 187 192 198 202 201 199 195 200 209 199 182 184 182 177 183 183 184 194 183 170 177 179 174 174 177 179 177 170 169 176 181 185 186 188 182 161 156
263 267 255 242 245 246 226 179 184 210 235 254 247 247 251 247 253 255 231 213 210 221 223 209 217 229 234 212 170 168 184 187 199 189 190 202 191 182 181 175 177 178 183 188 192 197 191 186 185 177 174 180 186 182 176 181 184 186 188 185 182 185 191 196 198 201 217 224 209 185 180 186 184 182 184 184 184 185 182 179 178 177 173 170 174 174 171 165 165 176 182 186 189 186 174 162 170
250 254 255 249 240 245 228 157 194 233 235 256 251 248 251 245 244 251 247 230 213 224 224 216 220 221 233 233 181 158 181 192 194 186 198 209 198 188 187 181 179 177 183 192 196 195 191 193 190 178 177 184 187 184 184 185 187 194 189 181 176 169 174 188 195 200 225 237 207 183 189 190 185 186 185 186 186 185 183 181 175 173 172 170 172 172 169 167 168 179 190 191 184 180 174 167 178
247 245 246 245 241 247 241 186 213 228 237 263 268 263 255 251 243 241 245 236 219 222 221 220 226 217 219 228 186 145 182 206 196 192 202 209 203 196 192 187 185 183 188 196 200 195 189 194 194 183 177 184 188 187 190 190 191 193 179 171 171 159 169 187 198 198 209 227 215 199 194 188 185 185 184 185 187 185 181 178 174 169 170 174 174 172 170 170 171 180 189 187 185 186 179 169 175
231 238 247 248 250 257 251 218 224 224 232 244 262 270 252 246 244 238 238 231 221 223 224 219 224 225 224 231 198 156 177 203 195 193 205 209 203 198 197 194 189 190 195 199 201 198 194 194 194 184 172 179 189 187 187 186 185 184 168 161 165 159 172 185 194 189 195 222 220 201 188 180 181 179 180 187 184 181 178 175 175 171 172 175 174 175 176 173 176 183 184 184 195 197 178 169 171
231 224 237 248 261 271 262 247 249 248 246 225 222 245 249 233 234 232 227 224 219 220 227 222 219 221 223 234 217 167 169 194 194 190 201 210 206 199 199 198 195 195 200 202 200 199 199 196 191 179 167 175 184 180 180 181 183 180 165 160 159 160 176 181 185 180 188 220 215 187 178 175 175 173 176 185 178 176 179 175 175 175 177 177 175 177 178 177 181 185 185 186 195 199 185 177 171
247 223 228 239 256 267 256 253 253 250 266 239 205 233 265 245 235 228 220 225 221 210 220 229 224 220 219 227 225 186 170 183 191 192 201 210 209 203 200 201 203 202 201 201 200 198 199 195 178 170 173 177 181 180 178 176 180 175 158 158 158 164 177 175 186 185 195 220 204 166 169 172 169 169 170 177 174 175 179 177 177 179 181 180 177 178 177 178 182 182 185 189 191 195 198 201 183
246 231 223 231 242 251 245 246 250 249 264 254 195 231 266 264 251 228 216 232 231 211 215 228 226 225 224 225 231 214 176 168 180 194 206 212 210 209 205 202 205 203 197 194 194 192 190 189 178 177 181 174 173 177 172 167 169 160 151 161 168 170 170 172 190 198 205 215 194 163 168 168 164 166 167 174 174 175 176 175 180 181 182 183 181 183 178 174 177 176 177 183 189 197 189 208 213
248 235 220 247 248 250 245 240 242 245 253 246 217 227 252 262 256 231 216 230 236 227 222 223 223 225 225 223 231 228 178 162 177 188 203 217 214 212 210 208 211 205 186 168 161 146 152 172 178 179 173 160 162 164 160 166 167 153 156 169 177 172 172 184 187 194 208 204 178 166 168 162 164 165 168 175 173 173 173 170 179 183 183 187 187 187 178 170 171 170 171 174 178 191 175 178 205
253 237 215 246 252 250 247 244 244 240 245 252 241 233 240 255 255 238 223 220 224 236 234 228 234 235 239 238 237 235 203 169 172 181 199 217 216 215 213 207 146 93 97 108 131 135 123 147 168 177 172 163 166 165 166 173 167 156 166 176 182 179 178 180 172 189 210 196 169 169 170 162 165 167 168 174 171 170 172 169 179 183 178 186 188 181 172 168 168 166 169 172 169 179 177 168 194
253 254 226 235 236 238 240 242 250 248 239 243 248 245 243 251 256 262 269 229 218 240 266 357 344 326 288 287 273 252 220 164 165 179 191 211 218 220 190 108 81 78 86 104 150 169 149 148 173 186 185 178 174 173 175 174 165 164 170 171 178 185 181 165 163 195 205 184 173 172 169 168 169 168 166 172 173 169 170 168 175 179 174 182 185 177 169 166 170 168 168 173 170 173 173 170 196
232 232 234 234 223 224 229 226 233 247 245 240 244 244 237 240 250 256 55 53 45 24 42 358 333 331 309 294 279 264 206 145 183 180 170 194 200 166 102 104 104 101 113 129 152 165 163 174 189 191 188 185 180 178 175 169 166 168 167 165 169 179 176 159 168 201 197 178 180 175 169 171 169 171 171 171 173 171 167 162 160 168 171 175 178 182 174 164 169 172 173 175 169 170 172 168 181
223 223 229 234 224 215 226 228 217 228 245 249 253 249 235 237 257 96 96 67 36 21 39 13 334 314 291 275 264 261 193 159 207 184 160 179 162 124 109 116 129 140 148 144 146 157 164 179 193 194 189 186 182 180 174 169 168 167 167 169 169 169 167 163 178 199 192 182 182 176 176 175 170 175 177 175 174 169 164 158 155 163 168 168 165 174 178 171 172 174 176 175 167 170 175 173 181
214 216 221 227 225 217 226 235 229 231 241 238 240 258 243 241 288 62 73 63 30 17 56 36 309 266 258 257 254 257 216 161 199 192 164 164 147 131 125 126 129 137 151 152 155 162 168 180 190 191 189 187 184 180 173 171 171 168 168 168 167 169 169 173 188 196 189 185 182 181 184 178 173 175 175 176 173 167 164 159 156 155 153 159 156 159 172 177 178 173 175 172 166 172 173 176 187
209 217 227 230 230 233 238 241 239 243 245 221 202 223 247 244 84 77 87 99 90 49 67 73 258 224 230 247 239 234 211 148 176 176 153 150 149 139 137 139 137 139 150 159 165 167 172 184 186 183 186 188 183 178 172 171 170 168 168 165 168 175 174 181 198 194 187 187 183 184 186 180 176 174 172 171 167 164 161 154 151 145 141 148 150 156 164 168 171 168 171 171 167 169 170 175 180
204 212 227 232 229 233 247 268 278 292 281 236 207 228 240 156 105 95 97 101 99 85 75 75 38 308 220 209 194 184 166 151 166 166 154 152 154 147 146 149 146 148 156 163 171 172 177 186 180 173 181 183 177 173 170 169 166 165 167 167 172 175 173 188 204 189 183 188 183 183 186 180 173 170 168 165 165 166 159 153 150 144 145 147 147 156 158 155 163 163 166 171 167 166 166 170 171
208 208 223 228 228 237 249 252 256 267 267 258 240 241 191 145 167 119 96 81 80 88 86 81 73 13 341 13 172 165 150 154 165 169 160 152 160 159 151 152 157 157 158 164 173 178 182 187 176 168 173 178 176 171 168 168 165 164 167 170 173 172 170 185 194 182 180 185 182 182 181 175 170 168 166 165 167 165 160 158 151 145 152 150 150 160 155 150 153 156 157 156 155 155 159 164 164
232 221 226 223 226 240 255 245 231 226 242 250 243 243 223 181 214 100 93 83 76 79 73 69 80 72 30 4 348 5 58 102 130 133 132 141 163 159 141 152 168 161 159 166 173 180 185 188 182 172 171 176 177 172 169 169 166 167 170 172 174 171 170 177 182 179 180 181 180 179 176 171 167 166 165 167 170 165 163 162 150 150 159 155 157 161 153 151 148 146 148 145 149 154 153 159 161
231 246 252 239 234 224 215 229 235 231 237 242 240 244 254 47 90 114 70 62 76 85 85 74 72 78 63 15 334 340 49 62 88 101 105 116 130 122 131 162 174 160 158 165 171 178 186 189 188 181 177 177 176 172 171 170 169 169 172 176 176 174 174 176 175 176 177 177 177 174 172 169 164 166 166 167 170 167 164 160 153 157 163 161 164 160 153 155 149 148 150 147 152 155 151 158 164
225 246 249 241 250 241 225 230 239 240 239 240 244 238 180 52 71 124 102 60 76 86 96 94 79 82 83 61 10 22 60 58 61 70 75 82 93 103 123 158 166 157 160 166 171 177 181 187 190 187 183 179 176 174 171 172 172 169 172 176 176 177 179 173 168 172 175 175 175 172 171 169 166 167 168 168 170 168 164 161 158 160 165 166 167 163 159 158 153 154 156 150 152 154 149 149 156
209 228 230 226 235 241 237 238 250 259 257 246 250 244 122 70 23 88 99 88 92 87 88 85 70 69 69 56 43 40 40 43 41 33 33 43 74 105 124 146 141 141 169 169 174 178 178 184 190 188 185 181 179 177 173 174 173 169 170 172 170 174 177 170 164 170 173 174 175 172 171 171 170 170 170 171 171 167 165 165 162 161 166 169 168 165 162 160 157 157 155 152 155 158 145 136 141
208 213 222 226 229 233 233 224 223 240 258 256 244 210 85 56 11 44 81 86 71 59 58 72 64 59 60 53 42 37 34 38 37 26 24 31 44 75 92 94 84 9 273 221 199 191 181 182 185 186 188 184 180 177 174 174 172 165 164 167 167 169 171 166 162 167 173 176 175 173 173 174 175 175 174 175 172 168 168 168 165 165 165 169 170 166 164 163 159 156 154 159 164 159 142 130 135
Height
777 778 777 777 775 774 770 768 779 771 768 772 756 745 735 725 730 737 740 739 739 736 732 733 732 733 737 739 737 733 733 739 747 753 763 760 747 750 753 754 759 761 767 770 772 774 775 777 777 779 781 782 783 784 786 787 789 791 793 795 796 798 800 801 803 804 804 805 807 808 810 811 812 813 814 815 815 816 816 817 818 818 819 819 819 820 820 820 820 820 821 821 821 820 820 819 819
778 778 776 777 773 775 768 763 780 771 766 772 748 736 732 728 737 739 738 739 738 735 733 732 731 732 732 733 733 735 737 738 741 748 753 750 750 755 755 758 760 763 768 771 773 775 778 779 778 781 782 783 784 785 787 788 790 792 794 795 797 799 800 802 803 804 805 806 807 809 811 812 813 813 814 816 816 817 817 818 819 819 820 820 821 821 821 821 822 822 822 822 822 822 822 821 821
777 777 775 776 771 770 765 763 779 770 764 764 740 726 729 734 738 737 737 737 736 734 734 733 732 731 732 737 736 739 744 738 740 746 749 750 752 756 758 760 761 765 769 772 775 775 779 779 780 781 782 784 784 786 787 789 791 792 795 796 798 799 801 802 804 805 806 807 808 810 811 812 813 814 815 816 817 818 819 820 820 821 821 822 822 822 822 823 823 823 823 824 824 823 823 823 823
776 776 773 771 770 769 769 771 773 766 762 754 738 730 732 736 737 739 738 737 735 734 735 734 734 729 731 743 737 738 745 742 743 746 749 751 752 757 759 761 764 767 769 773 775 776 779 780 781 782 783 785 785 787 788 790 792 793 795 797 799 800 802 803 804 806 807 807 809 810 811 813 814 815 816 817 818 819 820 821 821 822 822 823 823 823 824 824 824 825 825 825 825 825 825 824 824
775 775 772 769 770 767 767 769 764 763 759 744 737 736 735 735 738 743 739 737 734 734 735 734 737 731 731 740 738 742 748 746 744 744 748 752 753 758 760 763 765 768 771 773 775 778 779 780 782 783 784 785 786 788 788 791 792 794 796 798 800 801 802 804 805 806 807 808 809 811 812 813 814 815 816 817 819 820 821 821 822 823 823 824 824 824 825 825 826 826 826 826 826 826 826 826 825
774 773 770 768 766 761 767 769 762 759 746 733 735 735 737 738 741 743 739 735 731 731 732 733 735 732 737 740 739 745 746 746 746 746 750 753 756 759 761 764 766 769 772 773 775 778 780 781 782 784 785 786 787 788 789 791 793 795 797 799 800 801 803 804 806 807 808 809 810 811 813 814 815 816 817 818 819 821 822 822 823 823 824 824 825 825 826 827 827 827 827 827 827 827 827 826 826
772 771 769 771 766 762 773 770 759 751 735 729 733 734 739 742 741 742 739 737 734 731 730 731 728 733 744 741 744 748 745 747 746 750 753 754 758 760 762 765 767 770 772 774 777 779 780 781 782 784 785 786 788 788 790 792 794 796 797 799 801 802 803 805 806 807 808 809 810 812 813 815 816 817 818 819 820 821 822 823 824 824 825 825 825 826 827 827 827 828 828 828 828 827 828 827 827
771 769 765 771 770 765 771 765 753 743 733 731 732 737 743 742 740 741 741 740 737 733 731 730 726 739 745 738 750 751 746 749 748 753 755 756 759 761 764 765 767 771 773 775 777 779 781 781 783 785 786 787 788 789 791 793 794 796 798 800 801 802 803 805 807 808 809 810 811 812 814 815 817 818 818 820 821 822 823 824 824 825 825 826 826 827 828 828 828 828 828 828 828 828 828 828 828
768 768 763 769 770 765 766 760 749 737 731 733 735 740 742 739 739 740 741 739 736 733 732 727 727 739 741 741 755 752 748 752 752 756 756 758 760 762 765 765 768 771 774 775 778 780 781 783 784 785 786 788 789 790 792 793 795 796 799 800 802 803 804 806 807 808 809 811 812 813 815 816 817 818 819 820 821 822 823 824 825 825 826 826 827 828 828 828 829 829 829 829 829 829 829 829 829
767 766 765 768 768 766 763 755 746 736 731 734 738 741 740 738 738 738 739 738 733 733 729 723 727 734 738 749 758 753 753 754 754 758 758 760 761 763 765 766 769 772 775 776 778 780 782 784 785 786 787 788 790 791 792 794 795 797 799 801 802 803 804 806 807 809 810 812 813 814 816 817 818 819 820 821 822 823 824 824 825 826 826 827 828 828 829 829 829 830 830 830 830 830 830 830 830
768 764 763 769 770 767 759 749 740 733 733 737 740 739 739 737 738 738 737 736 731 732 728 725 731 732 739 751 756 754 754 756 757 758 759 761 762 764 766 768 771 772 775 776 779 781 782 785 786 787 787 789 790 791 793 794 796 798 800 801 803 804 805 806 808 809 810 813 814 815 816 817 819 819 821 822 823 823 824 825 825 826 827 828 828 829 829 830 830 831 831 831 831 831 831 831 831
770 764 763 772 768 759 750 744 736 731 736 741 742 741 738 735 739 739 738 736 731 732 729 728 728 728 743 754 755 755 754 757 758 759 760 762 764 766 767 769 771 772 775 776 779 781 782 785 787 788 789 790 791 792 794 795 797 798 800 802 803 804 805 807 808 810 811 813 814 816 817 818 819 820 822 822 823 824 824 825 826 827 827 828 829 829 830 830 831 832 832 832 832 832 832 832 832
768 761 763 769 759 751 745 742 737 738 742 740 742 742 737 737 741 739 737 735 732 736 728 722 721 726 750 758 757 757 756 758 758 760 761 762 765 766 768 769 771 773 775 777 778 780 782 784 786 788 789 790 791 793 794 795 797 798 801 802 803 805 806 807 808 810 812 813 815 817 818 819 820 821 823 823 824 824 825 826 826 827 827 828 829 830 830 831 832 832 833 833 833 833 833 833 833
763 757 760 765 755 749 746 744 740 744 746 737 740 741 736 738 740 736 735 736 733 732 722 716 719 735 757 761 762 761 757 759 759 761 761 763 765 766 769 770 772 774 775 777 778 780 782 784 786 788 789 791 792 793 795 796 798 799 801 802 804 805 806 808 809 811 812 814 816 817 819 820 821 822 823 824 824 825 825 826 827 827 828 829 830 830 831 832 832 833 833 833 833 834 833 834 834
759 754 759 765 758 752 747 745 742 745 743 738 742 740 737 736 735 736 735 738 733 724 721 720 720 739 757 760 764 759 756 758 759 762 762 764 765 767 769 770 773 775 776 777 778 780 781 783 785 787 789 791 793 794 796 797 798 800 801 802 804 805 807 808 810 811 813 814 816 817 819 820 822 822 823 824 825 826 826 827 827 828 828 829 830 831 831 832 833 833 834 834 834 834 834 834 834
756 756 762 767 762 755 746 742 744 747 742 738 741 739 742 736 732 737 734 734 734 726 728 729 725 740 755 756 757 753 754 757 759 762 762 764 766 768 770 771 774 775 776 777 777 779 780 783 784 787 789 791 793 794 796 797 799 800 801 803 804 806 807 809 810 812 813 815 816 818 819 821 822 823 824 824 825 826 827 828 828 828 829 829 830 831 832 833 833 834 834 834 835 835 835 835 834
756 761 768 767 761 753 742 740 746 747 741 740 741 741 746 741 732 733 729 730 735 733 731 732 730 739 748 749 748 748 753 757 759 762 762 765 766 768 770 771 773 774 776 776 777 779 781 783 784 786 788 790 792 794 796 797 799 800 802 803 804 806 807 809 811 812 814 815 817 818 820 821 822 823 824 825 825 826 827 828 828 828 829 829 830 831 832 833 834 834 835 835 835 835 835 835 835
760 767 770 765 756 748 738 737 742 742 741 745 745 743 746 745 738 731 730 733 734 736 734 733 735 738 742 743 745 748 753 757 759 761 761 764 765 767 768 770 772 773 774 775 777 779 781 783 784 786 787 790 792 793 795 796 799 800 802 803 805 806 808 810 811 813 814 815 817 819 820 821 822 823 824 825 825 826 827 828 828 829 829 829 830 831 832 833 834 835 835 836 836 836 836 836 836
763 764 766 760 746 743 739 738 743 744 746 748 745 744 745 744 739 734 736 737 734 740 740 737 741 743 743 743 746 750 754 758 759 761 762 763 764 765 767 769 770 771 773 774 776 778 780 782 784 786 788 790 791 792 794 796 798 800 802 803 805 806 808 810 811 813 814 815 817 818 820 821 821 823 824 825 825 826 827 828 828 829 829 829 830 831 832 833 834 835 835 836 836 836 836 836 836
760 760 764 753 740 742 742 743 746 746 747 749 747 744 744 740 736 736 738 738 735 739 740 740 745 747 748 747 747 752 755 758 760 761 762 762 763 764 766 767 769 770 772 774 777 779 781 782 785 787 789 791 791 792 794 796 798 799 801 802 804 806 807 809 811 813 814 815 816 818 820 821 822 823 824 825 825 826 827 828 829 829 829 829 830 831 832 833 834 835 835 836 836 836 836 837 837
757 757 759 745 741 747 744 745 747 747 748 749 748 747 745 737 734 736 738 741 737 733 734 733 742 748 750 751 750 754 757 759 760 760 760 761 762 764 765 767 768 770 773 776 779 781 782 784 786 788 791 793 793 794 795 796 797 799 800 801 803 804 806 808 810 812 813 815 816 819 821 821 822 825 825 825 826 826 827 828 828 829 829 830 831 831 832 833 834 835 835 836 836 836 836 837 837
756 754 751 743 746 751 745 746 748 749 749 749 749 748 744 738 737 736 736 742 734 727 728 726 737 747 749 753 753 756 759 758 758 758 759 760 762 763 765 766 768 771 774 777 780 782 785 788 788 789 793 796 797 799 799 798 797 798 799 801 803 804 806 808 810 812 813 815 817 819 821 821 823 826 825 825 826 826 827 828 828 829 830 830 831 831 833 833 834 835 835 835 836 836 836 836 836
759 754 747 746 748 750 746 746 748 749 751 751 749 745 742 743 742 735 734 738 728 723 725 723 736 748 749 753 755 757 758 756 757 757 758 760 761 763 764 766 768 772 774 776 779 782 786 791 793 792 794 795 797 800 801 801 800 799 799 801 802 804 806 808 811 812 813 815 816 818 822 824 825 825 824 824 825 826 826 827 828 829 829 830 830 831 832 833 834 834 835 835 836 836 835 835 836
759 756 747 746 747 749 747 747 748 748 751 749 746 744 745 747 743 735 734 733 724 724 724 723 738 750 750 753 753 754 754 754 756 757 758 760 761 763 764 767 769 772 774 776 779 781 785 789 793 794 795 796 798 799 801 802 802 800 800 802 802 804 806 809 811 812 814 815 815 818 821 824 824 823 822 823 824 825 825 826 827 828 828 830 830 831 832 833 833 834 834 835 835 836 835 835 835
756 756 749 747 748 748 747 747 748 747 748 746 745 747 746 744 739 737 736 728 723 726 726 726 738 747 748 752 752 752 753 754 756 757 759 760 761 764 765 767 770 772 774 775 779 783 784 786 791 794 795 797 800 800 801 804 804 801 801 802 802 804 806 809 811 812 813 815 816 818 821 822 822 822 821 821 822 824 824 825 826 827 828 829 830 831 831 832 833 833 834 834 834 835 834 835 834
752 752 749 748 748 747 747 747 747 746 745 744 747 749 744 738 737 739 733 725 725 727 730 732 737 745 747 750 751 751 753 754 755 757 759 761 762 763 765 768 770 772 774 775 779 783 784 786 791 794 795 797 799 800 801 803 805 804 803 802 802 804 807 809 811 813 814 815 817 819 820 820 821 821 821 820 822 823 824 825 825 826 827 828 829 830 831 832 832 832 833 833 833 833 833 834 833
747 750 749 748 748 745 746 748 746 746 744 744 748 749 742 735 739 741 728 723 727 728 738 742 739 744 749 750 750 750 753 754 755 757 759 760 762 763 765 767 769 770 773 775 778 781 783 787 791 794 794 794 796 799 801 802 804 805 805 803 804 805 808 810 812 814 814 815 817 818 819 819 820 820 820 820 821 823 824 824 825 826 827 828 829 829 831 831 832 832 832 832 832 832 833 833 832
748 751 752 750 748 746 746 748 747 746 744 742 744 746 742 738 741 738 724 725 729 729 741 746 741 744 747 747 749 751 753 754 755 757 759 759 761 763 764 766 768 769 772 774 777 780 783 786 790 793 793 793 794 798 802 803 803 805 805 804 806 807 808 810 812 814 815 816 817 818 819 818 818 818 819 820 821 822 823 824 824 825 826 827 829 829 830 831 832 832 832 832 832 832 832 832 832
750 753 757 753 748 747 745 744 744 744 744 738 740 750 748 743 742 731 722 727 730 730 737 738 737 741 744 746 750 752 752 754 756 757 758 759 760 762 763 766 768 769 771 774 777 779 782 785 788 790 791 791 792 795 801 803 803 804 804 805 806 807 809 812 814 816 816 817 819 819 818 818 818 818 819 819 820 821 822 823 824 825 826 827 828 829 830 831 831 832 832 832 832 833 833 832 832
754 752 756 753 750 746 737 738 741 742 741 735 745 760 750 738 735 724 720 727 731 734 735 735 736 739 744 747 750 752 752 754 756 757 758 758 759 761 763 766 768 770 771 774 777 779 782 784 787 789 790 789 790 794 798 800 802 804 804 806 807 809 811 813 815 816 817 818 819 818 818 818 818 818 819 820 820 821 822 823 824 825 826 827 828 829 830 831 831 832 832 832 832 832 832 832 832
755 752 753 753 753 743 730 734 741 743 740 735 748 761 745 728 724 719 719 726 731 737 736 735 738 740 745 749 750 751 752 754 755 756 757 757 759 760 763 766 768 770 772 774 777 779 781 783 785 787 787 788 789 793 795 797 801 804 805 806 808 809 811 813 814 815 816 817 817 818 818 818 819 819 819 820 820 821 822 823 824 825 826 827 828 829 830 830 831 831 831 831 832 832 831 832 831
752 757 756 750 749 741 732 735 739 742 740 735 747 756 742 721 713 716 722 726 730 737 740 741 742 742 746 749 749 750 751 754 755 755 756 757 759 761 763 766 768 770 772 774 777 778 780 781 783 784 785 787 790 793 794 795 799 804 806 806 807 808 810 812 814 815 815 816 816 817 817 818 819 819 820 820 820 821 822 823 824 825 826 827 828 829 829 830 830 831 831 831 831 831 831 831 832
749 754 754 744 743 740 736 738 734 737 741 738 744 749 740 721 710 715 722 726 729 736 744 749 749 747 748 749 747 747 750 753 753 753 755 757 759 761 763 765 768 770 772 773 776 777 778 780 781 782 784 787 790 793 794 795 799 804 806 806 807 808 810 812 813 815 815 815 816 817 817 818 819 819 820 820 820 821 821 822 823 825 826 827 828 828 829 830 830 831 831 831 831 831 831 831 832
748 749 748 740 739 738 737 740 734 735 742 742 741 742 738 722 711 717 723 726 730 734 741 750 753 750 750 748 744 744 747 752 754 752 753 756 758 760 762 765 767 770 772 774 775 776 777 778 779 780 783 787 790 793 793 794 798 802 806 806 807 808 810 812 813 814 815 814 815 816 817 818 819 819 819 820 820 820 820 821 822 824 826 827 827 828 829 830 830 831 831 831 831 831 831 832 833
745 747 749 743 740 741 739 739 736 737 743 743 742 743 738 726 717 721 725 725 731 732 734 745 751 748 747 747 744 744 746 750 753 751 752 755 756 758 761 764 767 769 772 774 775 775 775 777 777 779 782 785 789 791 792 794 796 799 804 805 806 808 810 812 813 813 813 814 815 816 816 817 818 818 819 819 820 820 819 821 823 825 826 826 827 828 829 830 830 831 831 831 831 831 831 832 833
738 739 743 742 739 739 735 735 735 737 744 744 743 743 737 731 724 722 723 724 730 733 730 736 745 745 744 745 742 742 746 749 749 748 750 754 756 758 761 764 766 769 771 773 773 772 773 775 777 779 782 784 787 789 791 793 794 797 802 805 806 807 809 811 813 813 814 815 815 816 816 817 818 818 819 819 820 820 820 821 823 824 825 826 827 828 829 830 830 831 831 831 831 831 832 833 833
741 740 741 741 739 736 730 734 735 735 746 746 740 742 737 733 727 720 720 724 729 734 733 736 743 744 737 735 739 743 746 748 749 748 750 753 755 757 760 763 766 768 770 771 770 770 772 774 776 779 782 785 787 789 791 792 794 798 802 805 806 807 809 810 813 815 816 817 816 815 816 817 817 818 819 819 820 821 821 822 823 824 825 826 827 828 829 830 830 831 831 831 831 832 832 833 834
750 747 745 742 741 737 727 732 737 736 747 747 739 742 739 732 728 721 718 724 730 732 733 736 739 738 732 729 737 744 745 748 749 749 751 753 754 757 759 761 764 766 768 769 768 770 772 773 776 779 781 784 786 788 791 793 795 800 803 805 806 808 809 811 813 815 817 818 816 815 816 817 817 817 818 819 820 821 822 823 824 825 825 826 827 828 829 829 830 831 831 831 831 832 833 833 834
753 750 749 745 740 735 727 730 737 737 746 747 740 741 739 730 727 725 720 722 727 728 727 730 732 733 735 734 737 742 745 748 750 750 752 754 754 756 758 760 763 765 767 767 767 769 772 774 776 778 781 783 785 788 791 792 796 802 804 805 806 808 809 811 812 813 816 819 817 816 816 817 817 817 818 819 820 821 822 823 824 825 825 826 827 828 828 829 830 830 831 831 831 832 833 834 835
755 751 750 747 738 735 735 737 739 739 744 745 740 740 738 731 727 726 721 718 721 722 722 724 725 726 730 730 733 743 748 749 750 752 753 754 754 755 756 759 762 764 765 765 766 768 771 773 774 777 781 783 786 790 792 794 799 804 805 805 806 807 808 809 811 812 815 818 818 817 817 817 817 818 818 819 820 821 823 823 824 824 825 826 827 827 828 829 829 830 830 831 831 832 833 834 835
753 749 748 745 737 732 734 739 741 741 743 741 744 749 743 734 733 729 721 718 719 720 720 721 721 721 723 722 726 738 745 747 750 752 754 754 752 753 755 758 760 762 762 762 763 766 768 770 773 776 781 784 787 791 794 797 801 804 806 806 806 807 808 809 811 812 814 818 819 817 816 817 817 818 819 820 821 821 822 823 824 824 825 826 827 827 828 828 829 829 830 831 831 832 833 834 836
750 746 743 741 739 734 734 740 744 750 751 737 741 761 753 730 728 728 720 719 720 720 720 720 719 718 720 721 721 730 741 744 746 750 754 753 749 751 753 755 757 758 759 759 761 765 768 770 773 777 781 785 789 792 795 798 801 803 805 805 806 807 809 810 812 813 814 818 819 817 817 817 818 819 819 820 821 822 822 823 823 824 825 825 826 827 827 828 828 829 830 831 831 832 833 834 835
753 741 735 737 740 741 742 743 747 756 753 732 731 756 755 731 721 719 717 719 718 718 721 719 717 716 717 719 718 725 738 741 741 745 749 749 748 748 750 750 752 754 756 758 761 765 768 771 775 778 781 784 788 792 795 798 801 803 805 806 807 808 809 810 813 814 816 818 818 817 817 817 818 819 820 821 822 822 823 823 824 824 825 825 826 826 827 827 828 829 830 830 831 832 833 834 835
751 733 731 739 741 744 744 744 747 747 741 734 731 744 754 742 724 714 715 720 717 717 721 719 716 715 715 716 715 718 728 734 737 741 744 745 746 745 745 746 747 751 755 759 763 766 769 773 777 779 781 784 787 791 794 798 801 803 806 807 808 810 810 811 814 816 818 819 818 817 817 817 818 819 820 821 822 823 823 823 824 824 825 825 826 826 826 827 828 829 829 830 831 832 834 835 835
742 729 735 741 740 741 739 740 744 739 741 747 737 736 754 751 725 713 717 722 723 719 718 717 715 713 713 714 714 714 722 731 735 738 741 743 744 743 742 744 747 751 756 760 765 769 772 776 780 781 783 785 787 790 793 795 798 802 806 807 808 811 812 813 815 817 819 819 818 817 817 817 818 819 821 822 823 823 823 824 824 825 825 825 826 826 826 827 827 828 829 830 831 832 834 835 835
735 731 739 741 740 740 738 740 739 739 751 756 740 735 753 753 727 716 719 721 725 721 715 715 714 713 712 712 713 712 718 729 734 737 741 743 744 743 742 746 751 754 756 763 770 775 779 782 784 786 785 785 786 787 789 790 792 797 801 803 805 809 812 813 814 816 819 819 818 817 817 817 819 820 821 822 823 823 824 824 824 825 825 826 826 826 827 827 827 828 829 830 831 832 834 834 835
734 737 742 742 741 738 739 739 736 749 760 753 740 732 742 752 735 720 722 721 720 720 722 724 722 720 718 715 716 711 711 723 733 736 739 741 743 743 746 752 756 757 760 766 771 774 779 782 784 785 784 784 785 785 785 787 789 792 796 799 803 807 811 812 813 816 818 818 818 818 817 818 819 820 822 823 824 824 824 824 825 825 826 826 827 827 827 827 828 829 830 831 832 833 834 834 835
737 742 744 747 747 742 746 745 746 765 766 745 733 724 731 751 740 724 725 721 719 725 731 733 729 727 723 719 719 713 714 725 730 733 736 737 741 745 750 756 758 759 763 766 768 770 774 778 780 781 782 784 785 785 785 786 787 790 793 798 801 805 808 809 811 815 817 817 817 818 818 818 819 820 822 823 824 824 824 824 825 825 826 827 827 827 827 828 828 829 830 831 832 833 833 834 835
739 742 746 755 759 759 765 761 758 766 758 735 725 724 733 741 732 726 727 724 727 731 732 735 735 734 729 724 722 716 717 726 727 731 737 738 742 748 752 756 758 760 763 765 766 767 770 774 776 778 780 782 784 784 785 786 787 789 792 796 799 803 806 807 810 814 816 816 817 817 818 819 819 820 822 823 824 824 824 825 825 825 826 827 828 828 828 829 829 829 830 831 831 832 833 834 835
741 742 747 757 763 775 783 771 761 759 749 730 722 732 743 737 728 732 734 732 735 734 733 739 742 743 737 727 723 718 719 727 731 733 738 740 745 750 752 753 756 760 763 765 765 764 766 769 772 776 778 780 782 782 783 785 787 789 792 795 798 802 806 808 811 814 815 816 817 818 818 818 819 821 822 823 824 824 824 825 825 826 826 827 828 829 829 829 830 830 830 831 832 832 833 834 835
736 732 736 746 752 765 776 768 762 759 747 733 731 741 747 742 736 734 734 735 736 736 737 740 741 742 739 733 729 727 728 733 735 736 738 742 746 750 752 752 754 759 762 764 765 764 765 766 768 773 776 778 780 781 782 784 786 789 792 795 798 802 806 808 811 814 815 816 817 818 819 819 820 821 822 823 824 824 825 825 825 825 826 827 828 829 830 830 830 831 831 831 832 832 833 834 834
730 724 733 742 738 743 755 755 753 756 754 743 737 737 735 738 739 731 730 734 734 739 742 742 745 741 738 737 733 731 735 738 740 740 739 743 747 749 750 752 754 758 761 763 764 764 765 765 766 770 773 775 778 780 781 784 786 788 791 794 797 801 805 808 811 813 814 815 817 818 819 819 820 821 822 823 824 825 825 825 825 826 826 827 828 829 830 830 831 831 832 832 832 832 833 833 834
727 728 734 730 721 727 745 752 746 754 766 753 736 734 733 739 744 734 731 736 738 742 744 746 750 747 742 740 735 732 734 738 740 741 741 744 748 748 748 751 754 757 760 762 763 763 764 765 766 767 770 772 774 777 780 783 785 787 789 792 796 799 803 807 810 812 813 815 816 817 818 819 820 821 822 823 824 825 825 825 825 826 826 827 828 829 830 831 831 832 832 832 833 833 833 834 834
728 734 728 718 718 724 737 754 755 759 769 753 734 735 738 744 753 745 737 741 746 747 746 747 750 751 751 751 749 744 740 740 740 739 741 744 745 746 747 751 754 756 759 760 761 762 763 765 766 766 768 770 772 775 778 781 784 787 789 792 795 797 801 805 809 811 813 814 816 817 818 819 820 821 822 823 824 825 825 825 825 826 827 828 829 830 830 831 832 832 833 833 833 833 834 834 835
722 726 717 721 736 739 741 754 761 763 767 756 737 731 737 749 758 756 749 747 751 751 751 752 753 754 757 761 762 755 749 749 745 741 743 743 743 746 750 753 754 755 758 759 760 761 762 764 765 766 767 769 771 773 777 780 782 785 787 790 794 796 800 804 807 810 812 813 815 816 817 819 820 821 822 823 824 824 825 825 826 827 827 828 829 830 831 831 832 833 833 833 834 834 834 834 835
719 720 718 721 732 737 739 742 747 753 759 757 743 737 750 760 757 756 757 752 752 755 755 756 756 757 758 761 763 758 753 752 748 745 745 744 745 750 753 755 755 756 758 759 760 761 762 764 765 766 767 769 771 772 775 779 781 784 786 789 793 796 800 803 806 809 812 813 815 816 817 818 820 821 822 823 824 824 825 825 826 827 827 828 829 830 831 831 832 833 833 834 834 834 834 834 835
725 729 730 728 724 726 731 735 738 744 752 756 749 749 759 760 752 753 756 752 752 756 759 758 758 757 757 758 760 759 757 755 753 751 750 748 749 753 757 758 758 759 761 761 762 762 762 764 764 766 767 768 770 771 774 777 780 783 785 788 792 796 799 802 805 808 811 813 814 815 817 818 819 821 821 822 823 823 824 825 826 827 828 828 829 830 831 832 832 833 834 834 834 834 834 834 835
719 725 727 726 725 730 741 746 740 738 747 750 747 758 767 758 751 752 752 753 754 756 761 763 762 761 760 760 761 762 761 759 758 757 755 754 754 757 760 761 762 764 765 765 765 764 764 764 764 766 766 767 769 770 773 776 779 782 785 788 792 795 798 801 803 807 810 812 814 815 817 818 819 820 821 822 822 823 824 825 826 827 828 828 829 830 831 832 833 834 834 834 834 834 834 835 836